| time (UTC) | temp F | wind direction | speed MPH | gust MPH | rain 1hr in | rain 24hr in | rain mn in | humidity % | barometer mb |
| 20260504231422 | 74 | 103 | 3.0 | 3.0 | 0.00 | 0.00 | 0.00 | 52 | 1011.3 |
| 20260504230918 | 75 | 245 | 6.0 | 6.0 | 0.00 | 0.00 | 0.00 | 48 | 1011.4 |
| 20260504230415 | 74 | 132 | 2.0 | 3.0 | 0.00 | 0.00 | 0.00 | 48 | 1011.6 |
| 20260504225914 | 74 | 142 | 0.0 | 2.0 | 0.00 | 0.00 | 0.00 | 49 | 1011.5 |
| 20260504225410 | 73 | 46 | 3.0 | 4.0 | 0.00 | 0.00 | 0.00 | 51 | 1011.6 |
| 20260504224908 | 73 | 22 | 2.0 | 4.0 | 0.00 | 0.00 | 0.00 | 51 | 1011.7 |
| 20260504224404 | 73 | 41 | 3.0 | 4.0 | 0.00 | 0.00 | 0.00 | 50 | 1011.7 |
| 20260504223902 | 73 | 231 | 5.0 | 7.0 | 0.00 | 0.00 | 0.00 | 53 | 1011.9 |
| 20260504223356 | 73 | 217 | 4.0 | 5.0 | 0.00 | 0.00 | 0.00 | 54 | 1011.6 |
| 20260504222853 | 73 | 346 | 2.0 | 7.0 | 0.00 | 0.00 | 0.00 | 53 | 1011.8 |
| 20260504222350 | 72 | 76 | 2.0 | 3.0 | 0.00 | 0.00 | 0.00 | 51 | 1011.8 |
| 20260504221849 | 73 | 343 | 3.0 | 6.0 | 0.00 | 0.00 | 0.00 | 51 | 1011.8 |
| 20260504221345 | 74 | 93 | 0.0 | 5.0 | 0.00 | 0.00 | 0.00 | 50 | 1011.8 |
| 20260504220842 | 73 | 293 | 4.0 | 6.0 | 0.00 | 0.00 | 0.00 | 53 | 1011.9 |
| 20260504220338 | 73 | 107 | 2.0 | 3.0 | 0.00 | 0.00 | 0.00 | 49 | 1011.8 |
| 20260504215836 | 74 | 329 | 2.0 | 2.0 | 0.00 | 0.00 | 0.00 | 50 | 1011.9 |
| 20260504215332 | 74 | 28 | 0.0 | 3.0 | 0.00 | 0.00 | 0.00 | 52 | 1012.0 |
| 20260504214828 | 75 | 200 | 4.0 | 5.0 | 0.00 | 0.00 | 0.00 | 50 | 1012.0 |
| 20260504214326 | 74 | 58 | 0.0 | 2.0 | 0.00 | 0.00 | 0.00 | 51 | 1012.1 |
| 20260504213822 | 73 | 30 | 4.0 | 6.0 | 0.00 | 0.00 | 0.00 | 50 | 1012.0 |
| 20260504213318 | 73 | 40 | 2.0 | 3.0 | 0.00 | 0.00 | 0.00 | 50 | 1012.1 |
| 20260504212815 | 75 | 74 | 3.0 | 4.0 | 0.00 | 0.00 | 0.00 | 48 | 1012.1 |
| 20260504212311 | 73 | 43 | 3.0 | 4.0 | 0.00 | 0.00 | 0.00 | 50 | 1012.2 |
| 20260504211809 | 72 | 54 | 2.0 | 3.0 | 0.00 | 0.00 | 0.00 | 50 | 1012.3 |
| 20260504211305 | 72 | 42 | 3.0 | 4.0 | 0.00 | 0.00 | 0.00 | 52 | 1012.4 |
| 20260504210803 | 74 | 111 | 1.0 | 3.0 | 0.00 | 0.00 | 0.00 | 50 | 1012.0 |
| 20260504210300 | 74 | 216 | 5.0 | 5.0 | 0.00 | 0.00 | 0.00 | 49 | 1012.1 |
| 20260504205757 | 72 | 92 | 3.0 | 6.0 | 0.00 | 0.00 | 0.00 | 52 | 1012.1 |
| 20260504205254 | 73 | 47 | 0.0 | 3.0 | 0.00 | 0.00 | 0.00 | 51 | 1012.1 |
| 20260504204752 | 71 | 57 | 3.0 | 4.0 | 0.00 | 0.00 | 0.00 | 50 | 1012.0 |
| 20260504204251 | 72 | 62 | 2.0 | 4.0 | 0.00 | 0.00 | 0.00 | 49 | 1012.1 |
| 20260504203750 | 73 | 47 | 3.0 | 3.0 | 0.00 | 0.00 | 0.00 | 49 | 1012.0 |
| 20260504203246 | 73 | 18 | 2.0 | 3.0 | 0.00 | 0.00 | 0.00 | 49 | 1012.1 |
| 20260504202741 | 73 | 25 | 0.0 | 2.0 | 0.00 | 0.00 | 0.00 | 50 | 1011.9 |
| 20260504202239 | 74 | 314 | 1.0 | 4.0 | 0.00 | 0.00 | 0.00 | 47 | 1012.0 |
| 20260504201736 | 75 | 355 | 1.0 | 2.0 | 0.00 | 0.00 | 0.00 | 47 | 1012.0 |
| 20260504201233 | 75 | 353 | 3.0 | 3.0 | 0.00 | 0.00 | 0.00 | 46 | 1012.1 |
| 20260504200731 | 74 | 14 | 0.0 | 3.0 | 0.00 | 0.00 | 0.00 | 45 | 1012.0 |
| 20260504200226 | 74 | 347 | 0.0 | 3.0 | 0.00 | 0.00 | 0.00 | 47 | 1012.1 |
| 20260504195723 | 74 | 352 | 2.0 | 4.0 | 0.00 | 0.00 | 0.00 | 45 | 1012.2 |
| 20260504195219 | 74 | 269 | 4.0 | 7.0 | 0.00 | 0.00 | 0.00 | 52 | 1012.3 |
| 20260504194716 | 73 | 231 | 8.0 | 9.0 | 0.00 | 0.00 | 0.00 | 48 | 1012.2 |
| 20260504194212 | 74 | 237 | 3.0 | 8.0 | 0.00 | 0.00 | 0.00 | 48 | 1012.0 |
| 20260504193709 | 75 | 48 | 3.0 | 3.0 | 0.00 | 0.00 | 0.00 | 45 | 1012.0 |
| 20260504193206 | 76 | 33 | 2.0 | 3.0 | 0.00 | 0.00 | 0.00 | 44 | 1012.0 |
| 20260504192704 | 75 | 72 | 2.0 | 4.0 | 0.00 | 0.00 | 0.00 | 43 | 1012.1 |
| 20260504192202 | 76 | 105 | 0.0 | 4.0 | 0.00 | 0.00 | 0.00 | 43 | 1012.0 |
| 20260504191701 | 76 | 252 | 4.0 | 4.0 | 0.00 | 0.00 | 0.00 | 47 | 1012.2 |
| 20260504191156 | 75 | 174 | 3.0 | 8.0 | 0.00 | 0.00 | 0.00 | 41 | 1011.9 |
| 20260504190652 | 75 | 252 | 9.0 | 12.0 | 0.00 | 0.00 | 0.00 | 41 | 1011.9 |
| 20260504190148 | 75 | 233 | 6.0 | 9.0 | 0.00 | 0.00 | 0.00 | 46 | 1012.1 |